This is the latest recevied weather packets stored in our database for station/object N9CQS-15. If no packets are shown the sender has not sent any weather packets the latest 10 day(s).
| Time | Temp. | Humidity | Pressure | Rain* | Wind** | Luminosity | Snow |
|---|---|---|---|---|---|---|---|
| 1777399141 | 15° C | 69% | 1016.8 hPa | 0 mm | - | - | - |
| 1777398542 | 15° C | 71% | 1016.8 hPa | 0 mm | - | - | - |
| 1777397942 | 15° C | 70% | 1016.9 hPa | 0 mm | - | - | - |
| 1777397341 | 14.44° C | 71% | 1017.1 hPa | 0 mm | - | - | - |
| 1777396742 | 15° C | 71% | 1017 hPa | 0 mm | - | - | - |
| 1777396142 | 14.44° C | 72% | 1016.9 hPa | 0 mm | - | - | - |
| 1777395541 | 14.44° C | 72% | 1016.8 hPa | 0 mm | - | - | - |
| 1777394942 | 15° C | 71% | 1016.7 hPa | 0 mm | - | - | - |
| 1777394342 | 15° C | 71% | 1016.6 hPa | 0 mm | - | - | - |
| 1777393742 | 15° C | 71% | 1016.6 hPa | 0 mm | - | - | - |
| 1777393142 | 15° C | 70% | 1016 hPa | 0 mm | - | - | - |
| 1777392542 | 15° C | 69% | 1015.9 hPa | 0 mm | - | - | - |
| 1777391941 | 15° C | 69% | 1015.9 hPa | 0 mm | - | - | - |
| 1777391341 | 14.44° C | 70% | 1015.9 hPa | 0 mm | - | - | - |
| 1777390742 | 14.44° C | 70% | 1016.1 hPa | 0 mm | - | - | - |
| 1777390141 | 13.89° C | 72% | 1016.4 hPa | 0 mm | - | - | - |
| 1777389542 | 13.89° C | 73% | 1016.3 hPa | 0 mm | - | - | - |
| 1777388941 | 13.89° C | 73% | 1016.2 hPa | 0 mm | - | - | - |
| 1777388342 | 13.89° C | 73% | 1016 hPa | 0 mm | - | - | - |
| 1777387742 | 13.89° C | 73% | 1015.9 hPa | 0 mm | - | - | - |
| 1777387142 | 13.33° C | 75% | 1015.6 hPa | 0 mm | - | - | - |
| 1777386542 | 13.33° C | 77% | 1015.4 hPa | 0 mm | - | - | - |
| 1777385942 | 12.78° C | 77% | 1015.4 hPa | 0 mm | - | - | - |
| 1777385342 | 12.78° C | 78% | 1015.4 hPa | 0 mm | - | - | - |
| 1777384742 | 12.22° C | 80% | 1015.5 hPa | 0 mm | - | - | - |
* Rain latest hour (hover to see other rain measurements)
** Current wind speed in m/s (hover to see current wind gust speed)